Content
SEND FEEDBACK

Daily
Averages
Monthly
Summary
United States of America

ADA, OKLAHOMA


Home > North America > United States > Oklahoma
Elevation: 1008 feet     Latitude: 34 48N     Longitude: 096 40W

WEATHER
 
SELECT A DAY
Number of Records: 348,893;   Date Range: 3/8/00 - 7/29/14
 
SHARE

PRINT THIS DATA

[ ← Previous Day ]
WEATHER ALMANAC - JANUARY 23, 2013
[ Next Day → ]
[ °C ]   °F
Weather ElementAverageHighLow
Temperature50.4 °F68 °F (2:15 pm)33.8 °F (6:35 am)
Dewpoint43.2 °F51.8 °F (1:15 pm)32 °F (1:55 am)
Humidity77.7 %94 % (11:35 pm)56 % (2:15 pm)
Barometer30.18 in30.25 in (10:35 am)30.11 in (4:55 pm)
Wind Speed7.3 mph12.7 mph (1:55 am)
Wind Gust17.3 mph (3:35 pm)
Weather ElementAverage
Visibility10 mi
Wind DirectionSSE (164.4 °)

Weather ElementTotal
Precipitation---
Heating Degree Days14.1 (Base 65)
Growing Degree Days0.9 (Base 50)
Averaged from 66 records on January 23, 2013
WEATHER CONDITIONS BREAKOUT
WIND DIRECTION BREAKOUT
WEATHER BY HOUR - JANUARY 23, 2013
[ °C ]   °F
Local TimeTemperatureDewpointHumidityBarometerVisibilityWind DirectionWind SpeedGust SpeedPrecipitationEventsConditions
12:35 AM37.4 °F33.8 °F87 %30.23 in10.0 miSE (140°)9.2 mphClear
12:55 AM37.4 °F33.8 °F87 %30.22 in10.0 miSSE (150°)9.2 mphClear
1:35 AM37.4 °F33.8 °F87 %30.22 in10.0 miSE (140°)9.2 mphClear
1:55 AM37.4 °F32.0 °F81 %30.22 in10.0 miSSE (150°)12.7 mphClear
2:15 AM37.4 °F32.0 °F81 %30.22 in10.0 miSSE (150°)12.7 mphClear
2:35 AM37.4 °F32.0 °F81 %30.22 in10.0 miSSE (150°)11.5 mphClear
2:55 AM37.4 °F32.0 °F81 %30.22 in10.0 miSE (140°)10.4 mphClear
3:55 AM35.6 °F32.0 °F87 %30.22 in10.0 miSSE (150°)6.9 mphClear
4:15 AM35.6 °F32.0 °F87 %30.21 in10.0 miSSE (150°)9.2 mphClear
4:35 AM35.6 °F32.0 °F87 %30.21 in10.0 miSSE (150°)10.4 mphClear
4:55 AM35.6 °F32.0 °F87 %30.21 in10.0 miSSE (160°)12.7 mphClear
5:15 AM35.6 °F32.0 °F87 %30.20 in10.0 miSSE (160°)11.5 mphClear
5:35 AM35.6 °F32.0 °F87 %30.20 in10.0 miSSE (160°)12.7 mphClear
6:15 AM35.6 °F32.0 °F87 %30.21 in10.0 miSSE (150°)8.1 mphClear
6:35 AM33.8 °F32.0 °F93 %30.22 in10.0 miSSE (160°)8.1 mphClear
6:55 AM33.8 °F32.0 °F93 %30.21 in10.0 miSSE (160°)6.9 mphClear
7:15 AM33.8 °F32.0 °F93 %30.22 in10.0 miSSE (150°)6.9 mphClear
7:35 AM33.8 °F32.0 °F93 %30.21 in10.0 miSSE (160°)9.2 mphClear
7:55 AM33.8 °F32.0 °F93 %30.22 in10.0 miSSE (150°)5.8 mphClear
8:15 AM35.6 °F32.0 °F87 %30.22 in10.0 miSSE (160°)6.9 mphClear
8:35 AM37.4 °F33.8 °F87 %30.22 in10.0 miSouth (170°)6.9 mphClear
8:55 AM37.4 °F33.8 °F87 %30.23 in10.0 miSSE (160°)8.1 mphClear
9:15 AM41.0 °F35.6 °F81 %30.23 in10.0 miSouth (170°)6.9 mphClear
9:35 AM42.8 °F35.6 °F76 %30.23 in10.0 miSouth (170°)6.9 mphClear
9:55 AM44.6 °F37.4 °F76 %30.24 in10.0 miSSE (160°)5.8 mphClear
10:15 AM46.4 °F39.2 °F76 %30.24 in10.0 miSouth (170°)4.6 mphClear
10:35 AM48.2 °F41.0 °F76 %30.25 in10.0 miSouth (170°)3.5 mphClear
10:55 AM50.0 °F41.0 °F71 %30.25 in10.0 miSSE (150°)3.5 mphClear
11:15 AM53.6 °F42.8 °F67 %30.24 in10.0 miSouth (170°)4.6 mphClear
11:35 AM55.4 °F44.6 °F67 %30.23 in10.0 miSSE (160°)3.5 mphClear
11:55 AM57.2 °F44.6 °F63 %30.22 in10.0 miSouth (170°)4.6 mphClear
12:15 PM60.8 °F50.0 °F68 %30.20 in10.0 miSouth (170°)5.8 mphClear
12:35 PM62.6 °F50.0 °F63 %30.19 in10.0 miSouth (170°)6.9 mphClear
12:55 PM62.6 °F50.0 °F63 %30.17 in10.0 miSSE (150°)4.6 mphClear
1:15 PM64.4 °F51.8 °F64 %30.17 in10.0 miSouth (180°)6.9 mphClear
1:35 PM64.4 °F51.8 °F64 %30.16 in10.0 miSW (220°)6.9 mphClear
1:55 PM66.2 °F51.8 °F60 %30.15 in10.0 miSSW (200°)4.6 mphClear
2:15 PM68.0 °F51.8 °F56 %30.14 in10.0 miSouth (170°)5.8 mphClear
2:35 PM66.2 °F51.8 °F60 %30.14 in10.0 miSSW (200°)9.2 mphClear
2:55 PM68.0 °F51.8 °F56 %30.13 in10.0 miSouth (190°)9.2 mphClear
3:15 PM68.0 °F51.8 °F56 %30.12 in10.0 miSSW (210°)12.7 mphClear
3:35 PM66.2 °F51.8 °F60 %30.13 in10.0 miSSW (210°)12.7 mph17.3 mphClear
3:55 PM66.2 °F51.8 °F60 %30.13 in10.0 miSSW (200°)9.2 mphClear
4:15 PM66.2 °F51.8 °F60 %30.13 in10.0 miSSW (210°)5.8 mphClear
4:35 PM66.2 °F51.8 °F60 %30.12 in10.0 miSouth (190°)5.8 mphClear
4:55 PM66.2 °F51.8 °F60 %30.11 in10.0 miSouth (170°)9.2 mphClear
5:15 PM66.2 °F51.8 °F60 %30.11 in10.0 miSouth (180°)6.9 mphClear
5:35 PM62.6 °F51.8 °F68 %30.12 in10.0 miSouth (170°)6.9 mphClear
5:55 PM60.8 °F50.0 °F68 %30.12 in10.0 miSSE (150°)3.5 mphClear
6:15 PM59.0 °F50.0 °F72 %30.12 in10.0 miSSE (160°)6.9 mphClear
6:35 PM59.0 °F51.8 °F77 %30.12 in10.0 miSSE (150°)6.9 mphClear
6:55 PM57.2 °F50.0 °F77 %30.13 in10.0 miSSE (160°)5.8 mphClear
7:15 PM55.4 °F50.0 °F82 %30.13 in10.0 miSSE (160°)4.6 mphClear
7:35 PM53.6 °F50.0 °F88 %30.14 in10.0 miSSE (150°)3.5 mphClear
7:55 PM53.6 °F50.0 °F88 %30.14 in10.0 miSouth (170°)5.8 mphClear
8:15 PM53.6 °F50.0 °F88 %30.14 in10.0 miSSE (160°)5.8 mphClear
8:35 PM53.6 °F50.0 °F88 %30.15 in10.0 miSSE (160°)4.6 mphClear
8:55 PM53.6 °F50.0 °F88 %30.14 in10.0 miSouth (170°)6.9 mphClear
9:15 PM55.4 °F50.0 °F82 %30.14 in10.0 miSouth (180°)8.1 mphClear
9:35 PM55.4 °F50.0 °F82 %30.14 in10.0 miSouth (170°)8.1 mphClear
10:15 PM53.6 °F50.0 °F88 %30.14 in10.0 miSSE (160°)5.8 mphClear
10:35 PM53.6 °F50.0 °F88 %30.15 in10.0 miSE (140°)5.8 mphClear
10:55 PM53.6 °F50.0 °F88 %30.15 in10.0 miSE (140°)5.8 mphClear
11:15 PM53.6 °F50.0 °F88 %30.15 in10.0 miSSE (150°)6.9 mphClear
11:35 PM51.8 °F50.0 °F94 %30.15 in10.0 miSE (140°)5.8 mphClear
11:55 PM51.8 °F50.0 °F94 %30.16 in10.0 miSE (130°)5.8 mphClear
Hourly data recorded from KADH, located miles away from Ada, Oklahoma







STORIES FROM OUR PARTNERS